#timestamp,LO_Frequency,Hit 
1501884015.0,286047018.0,N
1501884015.9,286047018.0,N
1501884035.8,286047015.9,N
1501884055.6,286047016.6,N
1501884075.4,286047017.0,N
1501884095.3,286047015.9,N
1501884115.1,286047020.4,N
1501884116.0,286047020.4,N
1501884135.8,286047019.0,N
1501884155.7,286047020.1,N
1501884175.5,286047019.4,N
1501884195.3,286047020.4,N
1501884215.2,286047019.2,N
1501884235.9,286047020.2,N
1501884255.7,286047020.0,N
1501884275.6,286047020.3,N
1501884295.4,286047020.2,N
1501884315.2,286047019.2,N
1501884335.0,286047021.5,N
1501884336.0,286047021.5,N
1501884355.8,286047021.3,N
1501884375.6,286047021.5,N
1501884395.4,286047018.9,N
1501884415.3,286047019.2,N
1501884435.1,286047019.0,N
1501884455.8,286047019.0,N
1501884475.7,286047021.2,N
1501884495.5,286047021.0,N
1501884515.3,286047023.4,N
1501884535.2,286047022.8,N
1501884555.9,286047022.2,N
1501884575.7,286047024.9,N
1501884595.6,286047024.9,N
1501884615.4,286047023.9,N
1501884635.2,286047024.0,N
1501884655.0,286047025.1,N
1501884656.0,286047025.1,N
1501884675.8,286047025.2,N
1501884695.6,286047025.1,N
1501884715.4,286047024.7,N
1501884735.3,286047024.9,N
1501884755.1,286047023.4,N
1501884775.8,286047023.5,N
1501884795.7,286047022.6,N
1501884815.5,286047023.6,N
1501884835.3,286047024.8,N
1501884855.2,286047022.1,N
1501884875.9,286047025.0,N
1501884895.7,286047022.1,N
1501884915.6,286047024.7,N
1501884935.4,286047025.0,N
1501884955.2,286047024.9,N
1501884975.0,286047023.0,N
1501884975.9,286047023.0,N
1501884995.8,286047022.5,N
1501885015.6,286047025.1,N
1501885035.4,286047022.6,N
1501885055.3,286047024.0,N
1501885075.1,286047023.7,N
1501885095.8,286047026.8,N
1501885115.7,286047026.5,N
1501885135.5,286047024.5,N
1501885155.3,286047024.4,N
1501885175.2,286047024.6,N
1501885195.9,286047023.9,N
1501885215.7,286047023.9,N
1501885235.5,286047024.6,N
1501885255.4,286047024.6,N
1501885275.2,286047024.9,N
1501885295.0,286047025.0,N
1501885295.9,286047025.0,N
1501885315.8,286047026.5,N
1501885335.6,286047026.4,N
1501885355.4,286047026.4,N
1501885375.3,286047025.5,N
1501885395.1,286047025.4,N
1501885396.0,286047025.4,N
1501885415.8,286047026.1,N
1501885435.7,286047023.9,N
1501885455.5,286047024.4,N
1501885475.3,286047024.7,N
1501885495.1,286047026.7,N
1501885515.9,286047026.1,N
1501885535.7,286047028.3,N
1501885555.5,286047027.5,N
1501885575.4,286047029.9,N
1501885595.2,286047027.4,N
1501885615.0,286047029.2,N
1501885615.9,286047029.2,N
1501885635.8,286047027.4,N
1501885655.6,286047029.7,N
1501885675.4,286047029.8,N
1501885695.3,286047029.5,N
1501885715.1,286047028.7,N
1501885716.0,286047028.7,N
1501885735.8,286047027.0,N
1501885755.6,286047026.9,N
1501885775.5,286047029.6,N
1501885795.3,286047028.5,N
1501885815.1,286047029.7,N
1501885835.9,286047029.6,N
1501885855.7,286047026.9,N
1501885875.5,286047027.3,N
1501885895.4,286047025.8,N
1501885915.2,286047028.4,N
1501885935.0,286047029.3,N
1501885935.9,286047029.3,N
1501885955.8,286047028.7,N
1501885975.6,286047029.5,N
1501885995.4,286047029.5,N
1501886015.3,286047030.0,N
1501886035.1,286047028.7,N
1501886036.0,286047028.7,N
1501886055.8,286047027.3,N
1501886075.7,286047027.8,N
1501886095.5,286047028.1,N
1501886115.3,286047029.4,N
1501886135.1,286047029.7,N
1501886155.9,286047031.0,N
1501886175.7,286047031.5,N
1501886195.5,286047028.5,N
1501886215.4,286047028.7,N
1501886235.2,286047028.6,N
1501886255.0,286047031.4,N
1501886255.9,286047031.4,N
1501886275.8,286047031.1,N
1501886295.6,286047031.4,N
1501886315.4,286047030.2,N
1501886335.2,286047030.1,N
1501886355.1,286047031.2,N
1501886356.0,286047031.2,N
1501886375.8,286047027.1,N
1501886395.6,286047029.3,N
1501886415.5,286047031.0,N
1501886435.3,286047030.2,N
1501886455.1,286047034.5,N
1501886475.9,286047034.2,N
1501886495.7,286047033.9,N
1501886515.5,286047034.8,N
1501886535.4,286047032.0,N
1501886555.2,286047032.9,N
1501886575.0,286047032.8,N
1501886575.9,286047032.8,N
1501886595.8,286047032.1,N
1501886615.6,286047032.6,N
1501886635.4,286047032.8,N
1501886655.3,286047032.9,N
1501886675.1,286047032.9,N
1501886676.0,286047032.9,N
1501886695.8,286047030.6,N
1501886715.6,286047032.3,N
1501886735.5,286047030.1,N
1501886755.3,286047030.2,N
1501886775.1,286047034.0,N
1501886795.9,286047034.6,N
1501886815.7,286047034.4,N
1501886835.5,286047032.2,N
1501886855.4,286047031.8,N
1501886875.2,286047033.1,N
1501886895.0,286047033.0,N
1501886895.9,286047033.0,N
1501886915.8,286047034.5,N
1501886935.6,286047033.6,N
1501886955.4,286047036.0,N
1501886975.2,286047034.9,N
1501886995.1,286047035.3,N
1501886996.0,286047035.3,N
1501887015.8,286047035.1,N
1501887035.6,286047035.0,N
1501887055.5,286047035.0,N
1501887075.3,286047035.6,N
1501887095.1,286047037.1,N
1501887115.9,286047037.5,N
1501887135.7,286047037.4,N
1501887155.5,286047037.2,N
1501887175.4,286047037.6,N
1501887195.2,286047037.2,N
1501887215.0,286047037.1,N
1501887215.9,286047037.1,N
1501887235.8,286047037.9,N
1501887255.6,286047039.6,N
1501887275.4,286047038.3,N
1501887295.2,286047036.9,N
1501887315.1,286047038.9,N
1501887316.0,286047038.9,N
1501887335.8,286047038.7,N
1501887355.6,286047039.5,N
1501887375.5,286047037.2,N
1501887395.3,286047036.9,N
1501887415.1,286047037.9,N
1501887435.9,286047038.5,N
1501887455.7,286047039.9,N
1501887475.5,286047040.0,N
1501887495.4,286047039.9,N
1501887515.2,286047041.2,N
1501887535.0,286047038.1,N
1501887535.9,286047038.1,N
1501887555.8,286047038.6,N
1501887575.6,286047040.5,N
1501887595.4,286047038.4,N
